| time (UTC) | temp C | wind direction | speed KPH | gust KPH | rain 1hr cm | rain 24hr cm | rain mn cm | humidity % | barometer mb |
| 20260510234102 | 26 | 270 | 1.6 | 1.6 | 0.00 | 0.00 | 0.00 | 50 | 1013.3 |
| 20260510233101 | 26 | 268 | 1.6 | 3.2 | 0.00 | 0.00 | 0.00 | 49 | 1013.5 |
| 20260510232059 | 26 | 262 | 3.2 | 4.8 | 0.00 | 0.00 | 0.00 | 46 | 1013.3 |
| 20260510231059 | 27 | 277 | 6.4 | 9.7 | 0.00 | 0.00 | 0.00 | 44 | 1013.1 |
| 20260510230058 | 27 | 273 | 6.4 | 9.7 | 0.00 | 0.00 | 0.00 | 43 | 1013.0 |
| 20260510225056 | 27 | 246 | 3.2 | 8.0 | 0.00 | 0.00 | 0.00 | 45 | 1013.0 |
| 20260510224055 | 27 | 260 | 4.8 | 8.0 | 0.00 | 0.00 | 0.00 | 43 | 1013.0 |
| 20260510223049 | 27 | 287 | 9.7 | 11.3 | 0.00 | 0.00 | 0.00 | 42 | 1013.0 |
| 20260510222049 | 27 | 258 | 8.0 | 9.7 | 0.00 | 0.00 | 0.00 | 44 | 1013.0 |
| 20260510221046 | 28 | 266 | 8.0 | 11.3 | 0.00 | 0.00 | 0.00 | 42 | 1012.7 |
| 20260510220044 | 28 | 264 | 4.8 | 4.8 | 0.00 | 0.00 | 0.00 | 45 | 1012.7 |
| 20260510215040 | 28 | 271 | 8.0 | 9.7 | 0.00 | 0.00 | 0.00 | 44 | 1013.0 |
| 20260510214038 | 28 | 253 | 3.2 | 4.8 | 0.00 | 0.00 | 0.00 | 46 | 1012.8 |
| 20260510213037 | 27 | 283 | 4.8 | 8.0 | 0.00 | 0.00 | 0.00 | 48 | 1012.6 |
| 20260510212037 | 27 | 277 | 4.8 | 8.0 | 0.00 | 0.00 | 0.00 | 47 | 1012.6 |
| 20260510211034 | 28 | 257 | 4.8 | 11.3 | 0.00 | 0.00 | 0.00 | 47 | 1012.8 |
| 20260510210032 | 28 | 303 | 9.7 | 11.3 | 0.00 | 0.00 | 0.00 | 45 | 1012.8 |
| 20260510205027 | 27 | 280 | 6.4 | 9.7 | 0.00 | 0.00 | 0.00 | 47 | 1012.6 |
| 20260510204026 | 28 | 305 | 4.8 | 8.0 | 0.00 | 0.00 | 0.00 | 45 | 1012.5 |
| 20260510203026 | 28 | 167 | 4.8 | 4.8 | 0.00 | 0.00 | 0.00 | 45 | 1012.8 |
| 20260510202022 | 28 | 278 | 0.0 | 3.2 | 0.00 | 0.00 | 0.00 | 48 | 1012.9 |
| 20260510201021 | 28 | 166 | 4.8 | 8.0 | 0.00 | 0.00 | 0.00 | 50 | 1012.7 |
| 20260510200021 | 28 | 246 | 1.6 | 1.6 | 0.00 | 0.00 | 0.00 | 51 | 1012.8 |
| 20260510195020 | 28 | 237 | 4.8 | 4.8 | 0.00 | 0.00 | 0.00 | 51 | 1012.9 |
| 20260510194018 | 27 | 283 | 4.8 | 9.7 | 0.00 | 0.00 | 0.00 | 50 | 1012.8 |
| 20260510193014 | 27 | 276 | 6.4 | 11.3 | 0.00 | 0.00 | 0.00 | 53 | 1012.9 |
| 20260510192011 | 28 | 327 | 6.4 | 9.7 | 0.00 | 0.00 | 0.00 | 50 | 1013.3 |
| 20260510191010 | 28 | 244 | 4.8 | 8.0 | 0.00 | 0.00 | 0.00 | 53 | 1013.4 |
| 20260510190010 | 28 | 263 | 8.0 | 11.3 | 0.00 | 0.00 | 0.00 | 53 | 1013.5 |
| 20260510185010 | 27 | 222 | 1.6 | 3.2 | 0.00 | 0.00 | 0.00 | 56 | 1013.8 |
| 20260510184008 | 27 | 313 | 0.0 | 0.0 | 0.00 | 0.00 | 0.00 | 56 | 1013.3 |
| 20260510183005 | 27 | 322 | 4.8 | 9.7 | 0.00 | 0.00 | 0.00 | 53 | 1013.6 |
| 20260510182002 | 26 | 265 | 0.0 | 0.0 | 0.00 | 0.00 | 0.00 | 53 | 1013.8 |
| 20260510181002 | 26 | 208 | 3.2 | 3.2 | 0.00 | 0.00 | 0.00 | 56 | 1013.7 |
| 20260510180003 | 27 | 212 | 4.8 | 8.0 | 0.00 | 0.00 | 0.00 | 55 | 1013.8 |
| 20260510175000 | 28 | 232 | 6.4 | 8.0 | 0.00 | 0.00 | 0.00 | 55 | 1013.6 |
| 20260510174001 | 26 | 29 | 0.0 | 3.2 | 0.00 | 0.00 | 0.00 | 57 | 1013.8 |
| 20260510172959 | 26 | 62 | 3.2 | 4.8 | 0.00 | 0.00 | 0.00 | 57 | 1013.7 |
| 20260510171957 | 26 | 311 | 1.6 | 3.2 | 0.00 | 0.00 | 0.00 | 57 | 1013.8 |
| 20260510170957 | 26 | 242 | 1.6 | 4.8 | 0.00 | 0.00 | 0.00 | 55 | 1014.0 |
| 20260510165954 | 27 | 322 | 3.2 | 8.0 | 0.00 | 0.00 | 0.00 | 54 | 1014.0 |
| 20260510164953 | 26 | 318 | 1.6 | 1.6 | 0.00 | 0.00 | 0.00 | 53 | 1014.0 |
| 20260510163952 | 26 | 190 | 1.6 | 8.0 | 0.00 | 0.00 | 0.00 | 52 | 1014.1 |
| 20260510162949 | 26 | 140 | 6.4 | 11.3 | 0.00 | 0.00 | 0.00 | 54 | 1014.1 |
| 20260510161948 | 26 | 66 | 4.8 | 9.7 | 0.00 | 0.00 | 0.00 | 54 | 1014.0 |
| 20260510160947 | 26 | 296 | 1.6 | 4.8 | 0.00 | 0.00 | 0.00 | 57 | 1014.4 |
| 20260510155942 | 26 | 40 | 6.4 | 8.0 | 0.00 | 0.00 | 0.00 | 58 | 1014.5 |
| 20260510154942 | 26 | 192 | 1.6 | 8.0 | 0.00 | 0.00 | 0.00 | 61 | 1014.6 |
| 20260510153937 | 26 | 16 | 0.0 | 1.6 | 0.00 | 0.00 | 0.00 | 66 | 1014.5 |
| 20260510152937 | 26 | 26 | 3.2 | 8.0 | 0.00 | 0.00 | 0.00 | 64 | 1014.5 |
| 20260510151937 | 25 | 303 | 3.2 | 3.2 | 0.00 | 0.00 | 0.00 | 67 | 1014.4 |
| 20260510150935 | 25 | 270 | 1.6 | 4.8 | 0.00 | 0.00 | 0.00 | 65 | 1014.5 |
| 20260510145933 | 25 | 39 | 1.6 | 4.8 | 0.00 | 0.00 | 0.00 | 68 | 1014.4 |
| 20260510144933 | 24 | 263 | 0.0 | 4.8 | 0.00 | 0.00 | 0.00 | 72 | 1014.4 |
| 20260510143931 | 24 | 264 | 3.2 | 8.0 | 0.00 | 0.00 | 0.00 | 72 | 1014.4 |
| 20260510142930 | 23 | 226 | 4.8 | 4.8 | 0.00 | 0.00 | 0.00 | 75 | 1014.5 |
| 20260510141929 | 23 | 264 | 6.4 | 8.0 | 0.00 | 0.00 | 0.00 | 77 | 1014.4 |
| 20260510140923 | 22 | 264 | 4.8 | 8.0 | 0.00 | 0.00 | 0.00 | 78 | 1014.4 |
| 20260510135918 | 22 | 273 | 3.2 | 4.8 | 0.00 | 0.00 | 0.00 | 79 | 1014.5 |
| 20260510134918 | 22 | 247 | 1.6 | 4.8 | 0.00 | 0.00 | 0.00 | 80 | 1014.3 |
| 20260510133916 | 21 | 230 | 3.2 | 4.8 | 0.00 | 0.00 | 0.00 | 83 | 1014.3 |
| 20260510132914 | 21 | 246 | 1.6 | 8.0 | 0.00 | 0.00 | 0.00 | 85 | 1014.3 |
| 20260510131909 | 20 | 228 | 6.4 | 8.0 | 0.00 | 0.00 | 0.00 | 86 | 1014.3 |
| 20260510130908 | 20 | 234 | 4.8 | 8.0 | 0.00 | 0.00 | 0.00 | 88 | 1014.1 |
| 20260510125908 | 20 | 297 | 4.8 | 9.7 | 0.00 | 0.00 | 0.00 | 90 | 1014.2 |
| 20260510124908 | 18 | 252 | 6.4 | 8.0 | 0.00 | 0.00 | 0.00 | 92 | 1014.3 |
| 20260510123906 | 18 | 244 | 3.2 | 4.8 | 0.00 | 0.00 | 0.00 | 94 | 1014.1 |
| 20260510122904 | 18 | 288 | 1.6 | 8.0 | 0.00 | 0.00 | 0.00 | 96 | 1014.1 |
| 20260510121901 | 17 | 277 | 3.2 | 8.0 | 0.00 | 0.00 | 0.00 | 97 | 1014.3 |
| 20260510120856 | 17 | 246 | 4.8 | 8.0 | 0.00 | 0.00 | 0.00 | 97 | 1014.1 |
| 20260510115854 | 17 | 262 | 1.6 | 4.8 | 0.00 | 0.00 | 0.00 | 97 | 1013.5 |
| 20260510114853 | 17 | 278 | 3.2 | 4.8 | 0.00 | 0.00 | 0.00 | 97 | 1013.6 |
| 20260510113851 | 17 | 279 | 3.2 | 4.8 | 0.00 | 0.00 | 0.00 | 97 | 1013.5 |
| 20260510112850 | 16 | 295 | 4.8 | 4.8 | 0.00 | 0.00 | 0.00 | 97 | 1013.2 |
| 20260510111848 | 16 | 285 | 3.2 | 3.2 | 0.00 | 0.00 | 0.00 | 97 | 1013.4 |
| 20260510110845 | 16 | 247 | 3.2 | 8.0 | 0.00 | 0.00 | 0.00 | 97 | 1013.4 |
| 20260510105845 | 16 | 240 | 3.2 | 4.8 | 0.00 | 0.00 | 0.00 | 97 | 1013.2 |
| 20260510104841 | 16 | 241 | 0.0 | 3.2 | 0.00 | 0.00 | 0.00 | 97 | 1013.0 |
| 20260510103840 | 16 | 240 | 0.0 | 0.0 | 0.00 | 0.00 | 0.00 | 97 | 1012.7 |
| 20260510102838 | 16 | 236 | 1.6 | 4.8 | 0.00 | 0.00 | 0.00 | 97 | 1012.6 |
| 20260510101837 | 16 | 251 | 0.0 | 3.2 | 0.00 | 0.00 | 0.00 | 97 | 1012.6 |
| 20260510100837 | 16 | 241 | 0.0 | 0.0 | 0.00 | 0.00 | 0.00 | 97 | 1012.2 |
| 20260510095838 | 16 | 245 | 1.6 | 8.0 | 0.00 | 0.00 | 0.00 | 97 | 1012.3 |
| 20260510094832 | 16 | 260 | 0.0 | 1.6 | 0.00 | 0.00 | 0.00 | 97 | 1012.0 |
| 20260510093830 | 15 | 246 | 0.0 | 0.0 | 0.00 | 0.00 | 0.00 | 97 | 1012.1 |
| 20260510092828 | 15 | 211 | 0.0 | 0.0 | 0.00 | 0.00 | 0.00 | 97 | 1011.8 |
| 20260510091826 | 15 | 217 | 0.0 | 0.0 | 0.00 | 0.00 | 0.00 | 97 | 1012.0 |
| 20260510090825 | 15 | 239 | 0.0 | 0.0 | 0.00 | 0.00 | 0.00 | 97 | 1011.8 |
| 20260510085824 | 15 | 238 | 0.0 | 0.0 | 0.00 | 0.00 | 0.00 | 97 | 1011.6 |
| 20260510084820 | 16 | 232 | 0.0 | 3.2 | 0.00 | 0.00 | 0.00 | 96 | 1011.5 |
| 20260510083820 | 16 | 231 | 1.6 | 3.2 | 0.00 | 0.00 | 0.00 | 97 | 1011.6 |
| 20260510082818 | 16 | 236 | 1.6 | 3.2 | 0.00 | 0.00 | 0.00 | 96 | 1011.4 |
| 20260510081814 | 16 | 234 | 1.6 | 3.2 | 0.00 | 0.00 | 0.00 | 96 | 1011.3 |
| 20260510080812 | 16 | 211 | 3.2 | 3.2 | 0.00 | 0.00 | 0.00 | 96 | 1011.3 |
| 20260510075810 | 16 | 283 | 4.8 | 4.8 | 0.00 | 0.00 | 0.00 | 97 | 1011.2 |
| 20260510074810 | 16 | 267 | 0.0 | 0.0 | 0.00 | 0.00 | 0.00 | 97 | 1011.3 |
| 20260510073809 | 16 | 260 | 0.0 | 0.0 | 0.00 | 0.00 | 0.00 | 97 | 1011.2 |
| 20260510072807 | 16 | 250 | 0.0 | 0.0 | 0.00 | 0.00 | 0.00 | 97 | 1011.2 |
| 20260510071806 | 16 | 270 | 0.0 | 0.0 | 0.00 | 0.00 | 0.00 | 97 | 1011.4 |
| 20260510070802 | 16 | 254 | 0.0 | 0.0 | 0.00 | 0.00 | 0.00 | 97 | 1011.3 |
| 20260510065758 | 16 | 212 | 0.0 | 0.0 | 0.00 | 0.00 | 0.00 | 97 | 1011.2 |
| 20260510064758 | 16 | 212 | 0.0 | 0.0 | 0.00 | 0.00 | 0.00 | 97 | 1011.2 |
| 20260510063757 | 15 | 211 | 0.0 | 0.0 | 0.00 | 0.00 | 0.00 | 97 | 1011.2 |
| 20260510062756 | 16 | 199 | 3.2 | 3.2 | 0.00 | 0.00 | 0.00 | 96 | 1011.2 |
| 20260510061753 | 17 | 271 | 0.0 | 0.0 | 0.00 | 0.00 | 0.00 | 96 | 1010.8 |
| 20260510060752 | 17 | 287 | 3.2 | 3.2 | 0.00 | 0.00 | 0.00 | 97 | 1010.9 |
| 20260510055752 | 17 | 263 | 0.0 | 0.0 | 0.00 | 0.00 | 0.00 | 97 | 1011.2 |
| 20260510054749 | 17 | 262 | 3.2 | 4.8 | 0.00 | 0.00 | 0.00 | 97 | 1011.3 |
| 20260510053745 | 17 | 277 | 1.6 | 4.8 | 0.00 | 0.00 | 0.00 | 97 | 1011.4 |
| 20260510052743 | 17 | 273 | 0.0 | 0.0 | 0.00 | 0.00 | 0.00 | 97 | 1011.5 |
| 20260510051742 | 17 | 263 | 0.0 | 0.0 | 0.00 | 0.00 | 0.00 | 97 | 1011.8 |
| 20260510050741 | 17 | 262 | 1.6 | 3.2 | 0.00 | 0.00 | 0.00 | 96 | 1011.6 |
| 20260510045741 | 17 | 267 | 0.0 | 0.0 | 0.00 | 0.00 | 0.00 | 97 | 1011.6 |
| 20260510044740 | 17 | 247 | 0.0 | 0.0 | 0.00 | 0.00 | 0.00 | 97 | 1011.8 |
| 20260510043739 | 17 | 247 | 1.6 | 3.2 | 0.00 | 0.00 | 0.00 | 97 | 1011.8 |
| 20260510042734 | 17 | 231 | 0.0 | 0.0 | 0.00 | 0.00 | 0.00 | 96 | 1011.7 |
| 20260510041732 | 17 | 244 | 0.0 | 0.0 | 0.00 | 0.00 | 0.00 | 97 | 1011.7 |
| 20260510040733 | 17 | 246 | 0.0 | 0.0 | 0.00 | 0.00 | 0.00 | 97 | 1011.5 |
| 20260510035730 | 17 | 252 | 1.6 | 3.2 | 0.00 | 0.00 | 0.00 | 97 | 1011.5 |
| 20260510034728 | 17 | 240 | 1.6 | 3.2 | 0.00 | 0.00 | 0.00 | 97 | 1011.4 |
| 20260510033728 | 17 | 241 | 1.6 | 3.2 | 0.00 | 0.00 | 0.00 | 97 | 1011.4 |
| 20260510032728 | 16 | 235 | 0.0 | 0.0 | 0.00 | 0.00 | 0.00 | 97 | 1011.2 |
| 20260510031725 | 16 | 233 | 0.0 | 0.0 | 0.00 | 0.00 | 0.00 | 97 | 1011.2 |
| 20260510030720 | 16 | 232 | 0.0 | 0.0 | 0.00 | 0.00 | 0.00 | 97 | 1011.4 |
| 20260510025716 | 16 | 226 | 0.0 | 0.0 | 0.00 | 0.00 | 0.00 | 97 | 1011.2 |
| 20260510024716 | 17 | 235 | 0.0 | 0.0 | 0.00 | 0.00 | 0.00 | 97 | 1011.1 |
| 20260510023714 | 16 | 234 | 0.0 | 0.0 | 0.00 | 0.00 | 0.00 | 97 | 1011.3 |
| 20260510022713 | 16 | 234 | 0.0 | 0.0 | 0.00 | 0.00 | 0.00 | 97 | 1010.9 |
| 20260510021709 | 17 | 234 | 0.0 | 0.0 | 0.00 | 0.00 | 0.00 | 97 | 1010.9 |
| 20260510020707 | 17 | 234 | 0.0 | 0.0 | 0.00 | 0.00 | 0.00 | 97 | 1010.8 |
| 20260510015704 | 17 | 234 | 0.0 | 0.0 | 0.00 | 0.00 | 0.00 | 97 | 1010.8 |
| 20260510014701 | 17 | 234 | 0.0 | 0.0 | 0.00 | 0.00 | 0.00 | 97 | 1010.7 |
| 20260510013659 | 17 | 234 | 0.0 | 0.0 | 0.00 | 0.00 | 0.00 | 96 | 1010.6 |
| 20260510012655 | 17 | 234 | 0.0 | 0.0 | 0.00 | 0.00 | 0.00 | 96 | 1010.4 |
| 20260510011652 | 17 | 233 | 0.0 | 0.0 | 0.00 | 0.00 | 0.00 | 96 | 1010.4 |
| 20260510010650 | 17 | 233 | 0.0 | 0.0 | 0.00 | 0.00 | 0.00 | 95 | 1010.3 |
| 20260510005649 | 18 | 232 | 0.0 | 0.0 | 0.00 | 0.00 | 0.00 | 95 | 1010.2 |
| 20260510004644 | 18 | 231 | 0.0 | 0.0 | 0.00 | 0.00 | 0.00 | 93 | 1010.0 |
| 20260510003639 | 18 | 231 | 0.0 | 0.0 | 0.00 | 0.00 | 0.00 | 92 | 1010.2 |
| 20260510002634 | 18 | 244 | 0.0 | 0.0 | 0.00 | 0.00 | 0.00 | 91 | 1010.2 |
| 20260510001634 | 20 | 252 | 0.0 | 0.0 | 0.00 | 0.00 | 0.00 | 89 | 1010.1 |
| 20260510000633 | 20 | 254 | 0.0 | 0.0 | 0.00 | 0.00 | 0.00 | 86 | 1010.0 |
| 20260509235632 | 20 | 253 | 0.0 | 0.0 | 0.00 | 0.00 | 0.00 | 85 | 1009.9 |